Time,TemperatureF,DewpointF,PressureIn,WindDirection,WindDirectionDegrees,WindSpeedMPH,WindSpeedGustMPH,Humidity,HourlyPrecipIn,Conditions,Clouds,dailyrainin,SoftwareType,DateUTC
2013-01-03 00:14:00,43.2,28.6,30.03,East,90,3.2,-999.0,56,-99.99,,,0.00,Acu-Link.com,2013-01-03 08:14:00,
2013-01-03 00:29:00,44.2,27.7,30.02,ENE,67,3.2,-999.0,52,-99.99,,,0.00,Acu-Link.com,2013-01-03 08:29:00,
2013-01-03 00:45:00,43.3,27.8,30.03,East,90,2.7,-999.0,54,-99.99,,,0.00,Acu-Link.com,2013-01-03 08:45:00,
2013-01-03 01:00:00,43.3,27.3,30.02,ENE,67,3.2,-999.0,53,-99.99,,,0.00,Acu-Link.com,2013-01-03 09:00:00,
2013-01-03 01:15:00,43.5,26.6,30.02,ENE,67,3.7,-999.0,51,-99.99,,,0.00,Acu-Link.com,2013-01-03 09:15:00,
2013-01-03 01:31:00,43.3,26.4,30.03,NE,45,2.7,-999.0,51,-99.99,,,0.00,Acu-Link.com,2013-01-03 09:31:00,
2013-01-03 01:46:00,42.6,26.7,30.03,NE,45,3.2,-999.0,53,-99.99,,,0.00,Acu-Link.com,2013-01-03 09:46:00,
2013-01-03 02:01:00,42.1,27.5,30.03,NE,45,3.7,-999.0,56,-99.99,,,0.00,Acu-Link.com,2013-01-03 10:01:00,
2013-01-03 02:17:00,41.2,26.7,30.02,NE,45,3.2,-999.0,56,-99.99,,,0.00,Acu-Link.com,2013-01-03 10:17:00,
2013-01-03 02:33:00,41.9,23.7,30.03,WNW,292,4.7,-999.0,48,-99.99,,,0.00,Acu-Link.com,2013-01-03 10:33:00,
2013-01-03 02:48:00,44.8,22.0,30.02,NNE,22,7.8,-999.0,40,-99.99,,,0.00,Acu-Link.com,2013-01-03 10:48:00,
2013-01-03 03:03:00,46.0,21.8,30.02,WNW,292,3.2,-999.0,38,-99.99,,,0.00,Acu-Link.com,2013-01-03 11:03:00,
2013-01-03 03:19:00,44.6,23.5,30.02,NE,45,2.2,-999.0,43,-99.99,,,0.00,Acu-Link.com,2013-01-03 11:19:00,
2013-01-03 03:34:00,41.9,23.7,30.03,ENE,67,2.7,-999.0,48,-99.99,,,0.00,Acu-Link.com,2013-01-03 11:34:00,
2013-01-03 03:49:00,44.2,22.6,30.02,ENE,67,3.7,-999.0,42,-99.99,,,0.00,Acu-Link.com,2013-01-03 11:49:00,
2013-01-03 04:04:00,43.5,23.6,30.02,NNE,22,2.2,-999.0,45,-99.99,,,0.00,Acu-Link.com,2013-01-03 12:04:00,
2013-01-03 04:19:00,43.0,23.7,30.02,NNE,22,0.0,-999.0,46,-99.99,,,0.00,Acu-Link.com,2013-01-03 12:19:00,
2013-01-03 04:35:00,41.9,24.2,30.02,WSW,247,0.0,-999.0,49,-99.99,,,0.00,Acu-Link.com,2013-01-03 12:35:00,
2013-01-03 05:05:00,40.5,24.3,30.02,SSE,157,2.7,-999.0,52,-99.99,,,0.00,Acu-Link.com,2013-01-03 13:05:00,
2013-01-03 05:20:00,40.3,24.5,30.02,NNE,22,3.7,-999.0,53,-99.99,,,0.00,Acu-Link.com,2013-01-03 13:20:00,
2013-01-03 05:36:00,40.5,24.3,30.02,ENE,67,3.7,-999.0,52,-99.99,,,0.00,Acu-Link.com,2013-01-03 13:36:00,
2013-01-03 05:54:00,40.6,24.4,30.03,NE,45,3.7,-999.0,52,-99.99,,,0.00,Acu-Link.com,2013-01-03 13:54:00,
2013-01-03 06:09:00,39.9,24.2,30.03,SSE,157,0.0,-999.0,53,-99.99,,,0.00,Acu-Link.com,2013-01-03 14:09:00,
2013-01-03 06:24:00,39.0,24.7,30.04,North,0,2.2,-999.0,56,-99.99,,,0.00,Acu-Link.com,2013-01-03 14:24:00,
2013-01-03 06:40:00,38.8,24.9,30.04,ENE,67,2.2,-999.0,57,-99.99,,,0.00,Acu-Link.com,2013-01-03 14:40:00,
2013-01-03 06:55:00,38.8,25.3,30.04,East,90,2.7,-999.0,58,-99.99,,,0.00,Acu-Link.com,2013-01-03 14:55:00,
2013-01-03 07:10:00,38.8,25.3,30.05,NE,45,3.2,-999.0,58,-99.99,,,0.00,Acu-Link.com,2013-01-03 15:10:00,
2013-01-03 07:26:00,39.4,25.5,30.04,NNE,22,4.7,-999.0,57,-99.99,,,0.00,Acu-Link.com,2013-01-03 15:26:00,
2013-01-03 07:41:00,39.7,25.3,30.04,ENE,67,7.8,-999.0,56,-99.99,,,0.00,Acu-Link.com,2013-01-03 15:41:00,
2013-01-03 07:56:00,40.5,25.6,30.06,NE,45,4.7,-999.0,55,-99.99,,,0.00,Acu-Link.com,2013-01-03 15:56:00,
2013-01-03 08:11:00,41.4,25.6,30.07,NE,45,2.2,-999.0,53,-99.99,,,0.00,Acu-Link.com,2013-01-03 16:11:00,
2013-01-03 08:26:00,40.6,25.3,30.08,WNW,292,3.2,-999.0,54,-99.99,,,0.00,Acu-Link.com,2013-01-03 16:26:00,
2013-01-03 08:42:00,41.0,26.1,30.08,SSW,202,0.0,-999.0,55,-99.99,,,0.00,Acu-Link.com,2013-01-03 16:42:00,
2013-01-03 08:57:00,43.2,26.3,30.09,East,90,2.7,-999.0,51,-99.99,,,0.00,Acu-Link.com,2013-01-03 16:57:00,
2013-01-03 09:12:00,43.7,26.8,30.09,NNE,22,3.7,-999.0,51,-99.99,,,0.00,Acu-Link.com,2013-01-03 17:12:00,
2013-01-03 09:27:00,46.0,26.9,30.09,NE,45,4.2,-999.0,47,-99.99,,,0.00,Acu-Link.com,2013-01-03 17:27:00,
2013-01-03 09:43:00,48.4,27.5,30.10,NE,45,4.2,-999.0,44,-99.99,,,0.00,Acu-Link.com,2013-01-03 17:43:00,
2013-01-03 09:58:00,49.3,28.3,30.10,East,90,2.2,-999.0,44,-99.99,,,0.00,Acu-Link.com,2013-01-03 17:58:00,
2013-01-03 10:13:00,53.4,29.1,30.11,ENE,67,1.7,-999.0,39,-99.99,,,0.00,Acu-Link.com,2013-01-03 18:13:00,
2013-01-03 10:28:00,56.5,29.2,30.11,WNW,292,1.1,-999.0,35,-99.99,,,0.00,Acu-Link.com,2013-01-03 18:28:00,
2013-01-03 10:43:00,56.8,30.8,30.11,ENE,67,2.7,-999.0,37,-99.99,,,0.00,Acu-Link.com,2013-01-03 18:43:00,
2013-01-03 10:59:00,56.8,31.5,30.11,NE,45,3.7,-999.0,38,-99.99,,,0.00,Acu-Link.com,2013-01-03 18:59:00,
2013-01-03 11:14:00,55.8,31.8,30.11,NE,45,3.2,-999.0,40,-99.99,,,0.00,Acu-Link.com,2013-01-03 19:14:00,
2013-01-03 11:59:00,59.5,31.8,30.09,NNE,22,4.2,-999.0,35,-99.99,,,0.00,Acu-Link.com,2013-01-03 19:59:00,
2013-01-03 12:15:00,61.3,31.2,30.09,SE,135,2.7,-999.0,32,-99.99,,,0.00,Acu-Link.com,2013-01-03 20:15:00,
2013-01-03 12:30:00,61.0,30.9,30.08,NE,45,3.2,-999.0,32,-99.99,,,0.00,Acu-Link.com,2013-01-03 20:30:00,
2013-01-03 12:45:00,62.1,31.9,30.08,NE,45,2.7,-999.0,32,-99.99,,,0.00,Acu-Link.com,2013-01-03 20:45:00,
2013-01-03 13:00:00,61.7,32.3,30.08,NE,45,2.7,-999.0,33,-99.99,,,0.00,Acu-Link.com,2013-01-03 21:00:00,
2013-01-03 13:15:00,62.1,31.1,30.08,ENE,67,2.2,-999.0,31,-99.99,,,0.00,Acu-Link.com,2013-01-03 21:15:00,
2013-01-03 13:31:00,63.1,31.2,30.07,East,90,1.7,-999.0,30,-99.99,,,0.00,Acu-Link.com,2013-01-03 21:31:00,
2013-01-03 13:46:00,63.7,33.3,30.07,ESE,112,0.0,-999.0,32,-99.99,,,0.00,Acu-Link.com,2013-01-03 21:46:00,
2013-01-03 14:01:00,62.1,31.9,30.07,NNE,22,3.7,-999.0,32,-99.99,,,0.00,Acu-Link.com,2013-01-03 22:01:00,
2013-01-03 14:16:00,61.7,33.0,30.07,ENE,67,2.7,-999.0,34,-99.99,,,0.00,Acu-Link.com,2013-01-03 22:16:00,
2013-01-03 14:32:00,60.8,32.3,30.07,East,90,0.0,-999.0,34,-99.99,,,0.00,Acu-Link.com,2013-01-03 22:32:00,
2013-01-03 14:47:00,61.7,36.5,30.08,South,180,0.0,-999.0,39,-99.99,,,0.00,Acu-Link.com,2013-01-03 22:47:00,
2013-01-03 15:03:00,62.2,36.9,30.08,WNW,292,0.0,-999.0,39,-99.99,,,0.00,Acu-Link.com,2013-01-03 23:03:00,
2013-01-03 15:18:00,61.2,35.4,30.08,WSW,247,0.0,-999.0,38,-99.99,,,0.00,Acu-Link.com,2013-01-03 23:18:00,
2013-01-03 15:33:00,61.2,34.7,30.08,NE,45,0.0,-999.0,37,-99.99,,,0.00,Acu-Link.com,2013-01-03 23:33:00,
2013-01-03 15:48:00,60.3,33.9,30.08,NNE,22,0.0,-999.0,37,-99.99,,,0.00,Acu-Link.com,2013-01-03 23:48:00,
2013-01-03 16:03:00,59.5,34.5,30.09,West,270,5.8,-999.0,39,-99.99,,,0.00,Acu-Link.com,2013-01-04 00:03:00,
2013-01-03 16:19:00,54.5,36.7,30.09,West,270,5.3,-999.0,51,-99.99,,,0.00,Acu-Link.com,2013-01-04 00:19:00,
2013-01-03 16:34:00,51.6,37.3,30.09,West,270,4.7,-999.0,58,-99.99,,,0.00,Acu-Link.com,2013-01-04 00:34:00,
2013-01-03 16:49:00,49.6,35.9,30.09,West,270,5.3,-999.0,59,-99.99,,,0.00,Acu-Link.com,2013-01-04 00:49:00,
2013-01-03 17:05:00,48.9,36.1,30.09,SW,225,3.7,-999.0,61,-99.99,,,0.00,Acu-Link.com,2013-01-04 01:05:00,
2013-01-03 17:20:00,48.6,35.8,30.09,SW,225,3.2,-999.0,61,-99.99,,,0.00,Acu-Link.com,2013-01-04 01:20:00,
2013-01-03 17:35:00,48.4,34.7,30.09,WSW,247,3.7,-999.0,59,-99.99,,,0.00,Acu-Link.com,2013-01-04 01:35:00,
2013-01-03 17:50:00,48.6,34.5,30.10,WNW,292,3.2,-999.0,58,-99.99,,,0.00,Acu-Link.com,2013-01-04 01:50:00,
2013-01-03 18:05:00,48.2,34.6,30.10,SW,225,4.2,-999.0,59,-99.99,,,0.00,Acu-Link.com,2013-01-04 02:05:00,
2013-01-03 18:21:00,48.2,34.6,30.10,WSW,247,3.7,-999.0,59,-99.99,,,0.00,Acu-Link.com,2013-01-04 02:21:00,
2013-01-03 18:36:00,48.6,32.7,30.10,West,270,4.7,-999.0,54,-99.99,,,0.00,Acu-Link.com,2013-01-04 02:36:00,
2013-01-03 18:51:00,47.7,35.3,30.10,South,180,5.3,-999.0,62,-99.99,,,0.00,Acu-Link.com,2013-01-04 02:51:00,
2013-01-03 19:06:00,46.9,35.4,30.10,West,270,4.7,-999.0,64,-99.99,,,0.00,Acu-Link.com,2013-01-04 03:06:00,
2013-01-03 19:21:00,46.4,34.5,30.10,SW,225,0.0,-999.0,63,-99.99,,,0.00,Acu-Link.com,2013-01-04 03:21:00,
2013-01-03 19:37:00,46.0,34.1,30.10,SSW,202,0.0,-999.0,63,-99.99,,,0.00,Acu-Link.com,2013-01-04 03:37:00,
2013-01-03 19:52:00,44.8,33.4,30.10,NE,45,1.7,-999.0,64,-99.99,,,0.00,Acu-Link.com,2013-01-04 03:52:00,
2013-01-03 20:07:00,45.5,33.6,30.11,ENE,67,2.7,-999.0,63,-99.99,,,0.00,Acu-Link.com,2013-01-04 04:07:00,
2013-01-03 20:22:00,45.5,32.8,30.11,NE,45,0.0,-999.0,61,-99.99,,,0.00,Acu-Link.com,2013-01-04 04:22:00,
2013-01-03 20:37:00,45.0,32.4,30.11,ENE,67,0.0,-999.0,61,-99.99,,,0.00,Acu-Link.com,2013-01-04 04:37:00,
2013-01-03 20:53:00,44.2,32.4,30.11,NE,45,0.0,-999.0,63,-99.99,,,0.00,Acu-Link.com,2013-01-04 04:53:00,
2013-01-03 21:08:00,44.4,33.0,30.11,West,270,0.0,-999.0,64,-99.99,,,0.00,Acu-Link.com,2013-01-04 05:08:00,
2013-01-03 21:23:00,44.2,33.2,30.11,NE,45,0.0,-999.0,65,-99.99,,,0.00,Acu-Link.com,2013-01-04 05:23:00,
2013-01-03 21:39:00,44.4,33.0,30.11,ENE,67,0.0,-999.0,64,-99.99,,,0.00,Acu-Link.com,2013-01-04 05:39:00,
2013-01-03 21:54:00,44.1,33.9,30.12,ENE,67,3.7,-999.0,67,-99.99,,,0.00,Acu-Link.com,2013-01-04 05:54:00,
2013-01-03 22:09:00,44.1,34.6,30.12,ENE,67,2.2,-999.0,69,-99.99,,,0.00,Acu-Link.com,2013-01-04 06:09:00,
2013-01-03 22:24:00,44.1,33.9,30.13,NE,45,2.7,-999.0,67,-99.99,,,0.00,Acu-Link.com,2013-01-04 06:24:00,
2013-01-03 22:40:00,43.7,33.5,30.13,NE,45,0.0,-999.0,67,-99.99,,,0.00,Acu-Link.com,2013-01-04 06:40:00,
2013-01-03 22:55:00,44.4,33.4,30.12,NE,45,0.0,-999.0,65,-99.99,,,0.00,Acu-Link.com,2013-01-04 06:55:00,
2013-01-03 23:11:00,44.1,33.9,30.12,NE,45,2.7,-999.0,67,-99.99,,,0.00,Acu-Link.com,2013-01-04 07:11:00,
2013-01-03 23:26:00,43.9,33.3,30.12,ENE,67,3.2,-999.0,66,-99.99,,,0.00,Acu-Link.com,2013-01-04 07:26:00,
2013-01-03 23:41:00,43.7,33.5,30.11,NE,45,2.7,-999.0,67,-99.99,,,0.00,Acu-Link.com,2013-01-04 07:41:00,
2013-01-03 23:56:00,43.7,33.5,30.12,NE,45,2.7,-999.0,67,-99.99,,,0.00,Acu-Link.com,2013-01-04 07:56:00,